• In Portugal
  • List of Countries
  • For 7 days
  • Water Temperature
  • Satellite Maps
  • Weather Map
  • Weather Widgets
  • user-avatar
    Login

    Hourly Weather Magdalenowo

    Today, 20 June, Wednesday

    Time Temperature Precipitation Wind Pressure Humidity
    00:00 +15°C° 0 mm 2 mps 751 mmHg 93%
    01:00 +13°C° 0 mm 3 mps 751 mmHg 94%
    02:00 +13°C° 0 mm 3 mps 751 mmHg 95%
    03:00 +13°C° 0 mm 3 mps 751 mmHg 94%
    04:00 +13°C° 0 mm 3 mps 751 mmHg 94%
    05:00 +13°C° 0 mm 3 mps 752 mmHg 93%
    06:00 +14°C° 0 mm 4 mps 752 mmHg 85%
    07:00 +17°C° 0 mm 4 mps 752 mmHg 78%
    08:00 +17°C° 0 mm 5 mps 752 mmHg 70%
    09:00 +19°C° 0 mm 5 mps 752 mmHg 66%
    10:00 +20°C° 0 mm 5 mps 752 mmHg 62%
    11:00 +21°C° 0 mm 5 mps 752 mmHg 58%
    12:00 +21°C° 0 mm 5 mps 752 mmHg 57%
    13:00 +22°C° 0 mm 5 mps 752 mmHg 55%
    14:00 +23°C° 0 mm 5 mps 752 mmHg 54%
    15:00 +23°C° 0 mm 5 mps 752 mmHg 55%
    16:00 +23°C° 0 mm 5 mps 752 mmHg 56%
    17:00 +22°C° 0 mm 4 mps 752 mmHg 57%
    18:00 +21°C° 0 mm 3 mps 751 mmHg 63%
    19:00 +20°C° 0 mm 2 mps 751 mmHg 70%
    20:00 +20°C° 0 mm 1 mps 751 mmHg 76%
    21:00 +19°C° 0 mm 1 mps 751 mmHg 79%
    22:00 +17°C° 0 mm 2 mps 751 mmHg 82%
    23:00 +16°C° 0 mm 2 mps 751 mmHg 85%

    Tomorrow, 21 June, Thursday

    Time Temperature Precipitation Wind Pressure Humidity
    00:00 +16°C° 0 mm 2 mps 750 mmHg 84%
    01:00 +14°C° 0 mm 3 mps 750 mmHg 84%
    02:00 +14°C° 0 mm 3 mps 750 mmHg 83%
    03:00 +16°C° 0 mm 3 mps 750 mmHg 82%
    04:00 +17°C° 0 mm 3 mps 749 mmHg 80%
    05:00 +17°C° 0 mm 3 mps 749 mmHg 78%
    06:00 +19°C° 0 mm 3 mps 749 mmHg 77%
    07:00 +20°C° 0 mm 4 mps 748 mmHg 75%
    08:00 +21°C° 0 mm 4 mps 748 mmHg 74%
    09:00 +22°C° 0.1 mm 4 mps 747 mmHg 72%
    10:00 +23°C° 0.1 mm 5 mps 747 mmHg 69%
    11:00 +25°C° 0.1 mm 5 mps 746 mmHg 67%
    12:00 +26°C° 0.2 mm 6 mps 746 mmHg 64%
    13:00 +27°C° 0.2 mm 6 mps 745 mmHg 60%
    14:00 +28°C° 0.2 mm 7 mps 744 mmHg 57%
    15:00 +27°C° 0.4 mm 6 mps 743 mmHg 61%
    16:00 +27°C° 0.4 mm 6 mps 742 mmHg 65%
    17:00 +26°C° 0.4 mm 5 mps 742 mmHg 70%
    18:00 +25°C° 0.7 mm 5 mps 741 mmHg 74%
    19:00 +23°C° 0.7 mm 5 mps 740 mmHg 79%
    20:00 +22°C° 0.7 mm 5 mps 740 mmHg 84%
    21:00 +20°C° 0.4 mm 5 mps 740 mmHg 87%
    22:00 +19°C° 0.4 mm 4 mps 740 mmHg 90%
    23:00 +18°C° 0.4 mm 4 mps 740 mmHg 94%

    Day after tomorrow, 22 June, Friday

    Time Temperature Precipitation Wind Pressure Humidity
    00:00 +15°C° 0.7 mm 4 mps 740 mmHg 93%
    01:00 +14°C° 0.7 mm 4 mps 740 mmHg 93%
    02:00 +12°C° 0.7 mm 4 mps 740 mmHg 93%
    03:00 +12°C° 0 mm 5 mps 741 mmHg 92%
    04:00 +10°C° 0 mm 5 mps 741 mmHg 91%
    05:00 +10°C° 0 mm 6 mps 742 mmHg 90%
    06:00 +10°C° 0 mm 6 mps 742 mmHg 84%
    07:00 +11°C° 0 mm 6 mps 742 mmHg 78%
    08:00 +11°C° 0 mm 7 mps 743 mmHg 73%
    09:00 +12°C° 0 mm 7 mps 743 mmHg 67%
    10:00 +14°C° 0 mm 7 mps 743 mmHg 62%
    11:00 +15°C° 0 mm 7 mps 743 mmHg 56%
    12:00 +16°C° 0.1 mm 8 mps 743 mmHg 55%
    13:00 +16°C° 0.1 mm 8 mps 743 mmHg 54%
    14:00 +17°C° 0.1 mm 8 mps 743 mmHg 53%
    15:00 +16°C° 0.2 mm 8 mps 743 mmHg 57%
    16:00 +16°C° 0.2 mm 8 mps 743 mmHg 62%
    17:00 +15°C° 0.2 mm 7 mps 743 mmHg 66%
    18:00 +14°C° 0.2 mm 6 mps 744 mmHg 71%
    19:00 +13°C° 0.2 mm 5 mps 744 mmHg 77%
    20:00 +12°C° 0.2 mm 4 mps 744 mmHg 82%
    21:00 +11°C° 0 mm 4 mps 745 mmHg 86%
    22:00 +10°C° 0 mm 3 mps 745 mmHg 89%
    23:00 +9°C° 0 mm 3 mps 745 mmHg 92%

    23 June, Saturday

    Time Temperature Precipitation Wind Pressure Humidity
    00:00 +9°C° 0 mm 3 mps 745 mmHg 91%
    01:00 +8°C° 0 mm 4 mps 745 mmHg 90%
    02:00 +8°C° 0 mm 4 mps 745 mmHg 89%
    03:00 +9°C° 0 mm 3 mps 745 mmHg 89%
    04:00 +8°C° 0 mm 3 mps 745 mmHg 89%
    05:00 +8°C° 0 mm 3 mps 745 mmHg 89%
    06:00 +10°C° 0 mm 3 mps 745 mmHg 84%
    07:00 +11°C° 0 mm 4 mps 745 mmHg 80%
    08:00 +13°C° 0 mm 5 mps 745 mmHg 76%
    09:00 +13°C° 0.4 mm 5 mps 745 mmHg 77%
    10:00 +14°C° 0.4 mm 5 mps 745 mmHg 78%
    11:00 +14°C° 0.4 mm 5 mps 745 mmHg 80%
    12:00 +14°C° 0.6 mm 5 mps 745 mmHg 79%
    13:00 +14°C° 0.6 mm 5 mps 745 mmHg 79%
    14:00 +14°C° 0.6 mm 5 mps 745 mmHg 79%
    15:00 +14°C° 0.5 mm 5 mps 745 mmHg 80%
    16:00 +14°C° 0.5 mm 4 mps 745 mmHg 81%
    17:00 +14°C° 0.5 mm 4 mps 745 mmHg 82%
    18:00 +14°C° 0.4 mm 4 mps 745 mmHg 85%
    19:00 +13°C° 0.4 mm 3 mps 745 mmHg 87%
    20:00 +12°C° 0.4 mm 3 mps 745 mmHg 90%
    21:00 +11°C° 0.1 mm 3 mps 746 mmHg 92%
    22:00 +10°C° 0.1 mm 3 mps 746 mmHg 94%
    23:00 +9°C° 0.1 mm 3 mps 746 mmHg 95%

    24 June, Sunday

    Time Temperature Precipitation Wind Pressure Humidity
    00:00 +9°C° 0 mm 3 mps 746 mmHg 96%
    01:00 +8°C° 0 mm 3 mps 747 mmHg 96%
    02:00 +8°C° 0 mm 3 mps 747 mmHg 96%
    03:00 +8°C° 0 mm 3 mps 747 mmHg 96%
    04:00 +8°C° 0 mm 3 mps 747 mmHg 96%
    05:00 +8°C° 0 mm 3 mps 747 mmHg 96%
    06:00 +9°C° 0 mm 3 mps 748 mmHg 92%
    07:00 +11°C° 0 mm 3 mps 748 mmHg 88%
    08:00 +13°C° 0 mm 3 mps 748 mmHg 83%
    09:00 +14°C° 0.2 mm 3 mps 749 mmHg 77%
    10:00 +16°C° 0.2 mm 3 mps 749 mmHg 72%
    11:00 +17°C° 0.2 mm 3 mps 749 mmHg 66%
    12:00 +18°C° 0.5 mm 4 mps 749 mmHg 67%
    13:00 +18°C° 0.5 mm 4 mps 749 mmHg 69%
    14:00 +18°C° 0.5 mm 4 mps 749 mmHg 71%
    15:00 +18°C° 0.4 mm 4 mps 749 mmHg 71%
    16:00 +18°C° 0.4 mm 4 mps 749 mmHg 71%
    17:00 +18°C° 0.4 mm 4 mps 750 mmHg 71%
    18:00 +17°C° 0.1 mm 4 mps 750 mmHg 74%
    19:00 +16°C° 0.1 mm 3 mps 750 mmHg 78%
    20:00 +16°C° 0.1 mm 2 mps 750 mmHg 81%
    21:00 +14°C° 0 mm 2 mps 751 mmHg 84%
    22:00 +13°C° 0 mm 2 mps 751 mmHg 88%
    23:00 +12°C° 0 mm 2 mps 751 mmHg 91%

    25 June, Monday

    Time Temperature Precipitation Wind Pressure Humidity
    00:00 +10°C° 0 mm 2 mps 751 mmHg 92%
    01:00 +9°C° 0 mm 2 mps 752 mmHg 93%
    02:00 +8°C° 0 mm 2 mps 752 mmHg 94%
    03:00 +8°C° 0 mm 2 mps 752 mmHg 93%
    04:00 +8°C° 0 mm 2 mps 752 mmHg 91%
    05:00 +8°C° 0 mm 2 mps 752 mmHg 89%
    06:00 +10°C° 0 mm 2 mps 753 mmHg 82%
    07:00 +13°C° 0 mm 2 mps 753 mmHg 75%
    08:00 +15°C° 0 mm 2 mps 753 mmHg 68%
    09:00 +16°C° 0 mm 2 mps 753 mmHg 62%
    10:00 +18°C° 0 mm 2 mps 753 mmHg 55%
    11:00 +19°C° 0 mm 2 mps 753 mmHg 49%
    12:00 +20°C° 0 mm 3 mps 753 mmHg 49%
    13:00 +21°C° 0 mm 3 mps 753 mmHg 48%
    14:00 +22°C° 0 mm 3 mps 753 mmHg 47%
    15:00 +21°C° 0.1 mm 3 mps 753 mmHg 53%
    16:00 +21°C° 0.1 mm 3 mps 753 mmHg 58%
    17:00 +20°C° 0.1 mm 3 mps 754 mmHg 63%
    18:00 +19°C° 0 mm 3 mps 754 mmHg 69%
    19:00 +18°C° 0 mm 2 mps 754 mmHg 74%
    20:00 +18°C° 0 mm 2 mps 754 mmHg 80%
    21:00 +16°C° 0 mm 2 mps 754 mmHg 84%
    22:00 +15°C° 0 mm 2 mps 754 mmHg 87%
    23:00 +14°C° 0 mm 2 mps 755 mmHg 91%
    Show more